Home > Weather > Bydgoszcz > Past weeks

Flag for Poland Past Weather in Bydgoszcz, Poland — Yesterday and Last 2 Weeks

Now
53 °F

Fog.


Feels Like: 53 °F
Forecast: 55 / 70 °F
Wind: 2 mph from North

Location: Torun

Current Time: May 26, 2016 at 6:57:29 AM

Latest Report: May 26, 2016 at 6:00 AM


Visibility: 4 mi

Pressure: 29.95 "Hg

Humidity: 91%

Dew Point: 50 °F

Location of BydgoszczLocation

Past Weather in Bydgoszcz — Graph

°F

Bydgoszcz Temperature Yesterday

Maximum temperature yesterday: 78 °F (at 4:00 PM)
Minimum temperature yesterday: 52 °F (at 5:00 AM)
Average temperature yesterday: 67 °F

High & Low Weather Summary for the Past Weeks

 TemperatureHumidityPressure
High83 °F (May 23, 4:00 PM)96% (May 12, 6:00 AM)30.07 "Hg (May 12, 6:00 AM)
Low40 °F (May 19, 5:00 AM)23% (May 24, 5:00 PM)29.44 "Hg (May 13, 2:00 PM)
Average60 °F64%29.84 "Hg
* Reported May 11 5:00 AM — May 26 5:00 AM, Bydgoszcz, Weather by CustomWeather, © 2016

Note: Actual official high and low records may vary slightly from our data, if they occured in-between our weather recording intervals... More about our weather records

Advertising

Bydgoszcz Weather History for the Previous 24 Hours

Scroll right to see more
 ConditionsComfort  
Time TempWeatherWind HumidityBarometerVisibility
5:00 AM
Thu, May 26
53 °FFog.3 mph92%29.95 "Hg4 mi
4:00 AM53 °FFog.3 mph92%29.93 "Hg5 mi
3:00 AM53 °FFog.2 mph93%29.93 "Hg4 mi
2:00 AM54 °FLow clouds.2 mph94%29.92 "Hg6 mi
1:00 AM55 °FPassing clouds.1 mph86%29.92 "Hg9 mi
12:00 AM57 °FPassing clouds.2 mph79%29.90 "Hg17 mi
11:00 PM
Wed, May 25
60 °FPassing clouds.2 mph67%29.88 "Hg28 mi
10:00 PM64 °FPassing clouds.3 mph57%29.88 "Hg31 mi
9:00 PM67 °FPassing clouds.2 mph49%29.87 "Hg31 mi
8:00 PM71 °FPassing clouds.2 mph41%29.85 "Hg31 mi
7:00 PM74 °FPassing clouds.3 mph38%29.83 "Hg28 mi
6:00 PM77 °FPassing clouds.3 mph33%29.81 "Hg25 mi
5:00 PM78 °FPassing clouds.3 mph27%29.81 "Hg22 mi
4:00 PM78 °FScattered clouds.3 mph28%29.81 "Hg17 mi
3:00 PM76 °FScattered clouds.3 mph32%29.82 "Hg19 mi
2:00 PM76 °FScattered clouds.3 mph31%29.82 "Hg28 mi
1:00 PM77 °FScattered clouds.2 mph32%29.83 "Hg19 mi
12:00 PM73 °FScattered clouds.3 mph36%29.83 "Hg22 mi
11:00 AM74 °FScattered clouds.3 mph34%29.83 "Hg22 mi
10:00 AM74 °FPassing clouds.2 mph39%29.83 "Hg22 mi
9:00 AM70 °FPassing clouds.2 mph52%29.83 "Hg17 mi
8:00 AM66 °FPassing clouds.1 mph58%29.84 "Hg17 mi
7:00 AM61 °FPassing clouds.2 mph66%29.83 "Hg25 mi
6:00 AM56 °FPassing clouds.1 mph76%29.83 "Hg19 mi
Weather by CustomWeather, © 2016

See weather overviewHow to use our weather pages